User: anonymous   Login
Location: Unspecified
(0.0000°N, 0.0000°E)
Time: 14:00:14
(UTC+00:00)
Language:

OPTUS D2 - Orbit

View from above orbital plane
View from above orbital plane
View from above satellite
View from above satellite

Ground track
Ground track

The orbit data is extracted from the following two-line orbital elements,

1 32252U 07044A   17085.84666063 -.00000197 +00000-0 +00000-0 0  9997
2 32252 000.0112 135.7976 0003462 230.3895 275.0816 01.00272849034798
Epoch (UTC): 26 March 2017 20:19:11
Eccentricity: 0.0003462
inclination: 0.0112°
perigee height: 35771 km
apogee height: 35800 km
right ascension of ascending node: 135.7976°
argument of perigee: 230.3895°
revolutions per day: 1.00272849
mean anomaly at epoch: 275.0816°
orbit number at epoch: 3479

The dashed part of the orbit path shows where the satellite is in the earth's shadow,  

DLR